Location: ??????????
(41.2581°N, 22.8006°E)
Time: 09:53:54
(UTC+00:00)

Cosmos 2333 Rocket - Pass Details

Date: 13 December 2025
Orbit: 838 x 865 km, 70.8° (Epoch: 21 January)

Event Time Altitude Azimuth Distance (km) Brightness Sun altitude
Rises 16:41:18 0° 167° (SSE) 3,408 5.4 -18.3°
Reaches altitude 10° 16:44:09 10° 154° (SSE) 2,482 4.5 -18.8°
Enters shadow 16:47:24 23° 121° (ESE) 1,761 3.5 -19.4°
